Regional Weather Roundup
Issued by NWS

Current Version | Previous Version | Text Only | Print | Product List | Glossary On
Versions: 1 2 3 4 5 6 7 8 9 10 11 12 13 14 15 16 17 18 19 20 21 22 23 24 25 26 27 28 29 30 31 32 33 34 35 36 37 38 39 40 41 42 43 44 45 46 47 48 49 50
000
ASUS43 KMPX 240301
RWRMN
WEATHER ROUNDUP FOR MINNESOTA
NATIONAL WEATHER SERVICE TWIN CITIES/CHANHASSEN MN
1000 PM CDT WED JUL 23 2014


NOTE: "FAIR" INDICATES FEW OR NO CLOUDS BELOW 12,000 FEET WITH NO
SIGNIFICANT WEATHER AND/OR OBSTRUCTIONS TO VISIBILITY. N/A MEANS
CURRENT SKY AND/OR WEATHER CONDITIONS ARE NOT AVAILABLE.

MNZ060>063-068>070-240400-
   Twin Cities Metro

CITY           SKY/WX    TMP DP  RH WIND       PRES   REMARKS
TWIN CITIES    CLEAR     71  52  50 N6        30.16S
ST PAUL        CLEAR     70  54  56 N7        30.16S
CRYSTAL        CLEAR     69  56  62 CALM      30.15S
BLAINE         CLEAR     70  57  64 CALM      30.17S
LAKEVILLE      CLEAR     64  55  72 W3        30.16S
EDEN PRAIRIE   CLEAR     69  56  62 N3        30.15S
SOUTH ST PAUL  CLEAR     70  55  59 CALM      30.15S
LAKE ELMO      FAIR      64  59  82 CALM      30.17S
$$
MNZ001>005-007-008-013>017-022>024-027-028-240400-
   Northwest Minnesota

CITY           SKY/WX    TMP DP  RH WIND       PRES   REMARKS
BEMIDJI        CLEAR     61  55  80 NW3       30.19S
HALLOCK        CLEAR     64  55  72 CALM      30.18S
ROSEAU         PTCLDY    61  54  77 E6        30.20S
WARROAD        CLEAR     61  55  82 CALM      30.20S
THIEF RVR FALL CLEAR     64  55  72 CALM      30.20R
CROOKSTON      CLEAR     66  57  72 CALM      30.19S
FOSSTON        CLEAR     61  55  82 NW3       30.20S
DETROIT LAKES  CLEAR     68  59  73 CALM      30.21S
MOORHEAD       CLEAR     66  64  94 E5        30.18S
PARK RAPIDS    CLEAR     64  57  78 CALM      30.19F
$$
MNZ006-009>011-018-025>026-240400-
   North Central Minnesota

CITY           SKY/WX    TMP DP  RH WIND       PRES   REMARKS
BAUDETTE       CLEAR     61  54  77 CALM      30.21R
FLAG ISLAND    CLEAR     68  48  49 CALM      30.19S
INTL FALLS     CLEAR     54  53  97 CALM      30.19S
WASKISH        PTCLDY    61  55  82 CALM      30.20R
BIG FORK       CLEAR     57  54  88 NE1       30.20S
LONGVILLE      CLEAR     57  55  94 CALM      30.19S
GRAND RAPIDS   PTCLDY    59  54  82 CALM      30.19S
CRANE LAKE     CLEAR     52  52 100 CALM      30.21S
ORR            CLEAR     55  50  82 CALM      30.18S
COOK           CLEAR     55  54  94 CALM      30.21S
$$
MNZ012-019>021-037-240400-
   Northeast Minnesota

CITY           SKY/WX    TMP DP  RH WIND       PRES   REMARKS
DULUTH         PTCLDY    62  55  77 E3        30.19S
ELY            CLEAR     55  52  88 CALM      30.21R
HIBBING        CLEAR     56  52  86 CALM      30.20S
EVELETH        CLEAR     54  52  94 CALM      30.21S
DULUTH HARBOR  CLEAR     59  55  88 NE6       30.19S
TWO HARBORS    CLEAR     57  52  82 CALM      30.18R
SILVER BAY     CLEAR     54  54 100 CALM      30.18S
GRAND MARAIS     N/A     52  50  93 CALM      30.18S
G MARAIS ARPRT CLEAR     52  46  82 N3        30.22S
$$
MNZ029>031-032-039>041-046>048-054>057-064-240400-
   West Central Minnesota

CITY           SKY/WX    TMP DP  RH WIND       PRES   REMARKS
FERGUS FALLS   CLEAR     68  55  64 E3        30.18R
WHEATON        CLEAR     64  61  88 E3        30.18F
MORRIS         CLEAR     66  57  72 CALM      30.18R
ALEXANDRIA     CLEAR     68  57  68 NE6       30.20S
ELBOW LAKE     FAIR      69  58  69 NE6       30.18S
WADENA         CLEAR     61  55  82 CALM      30.19S
GLENWOOD       CLEAR     66  59  77 N3        30.20R
APPLETON       CLEAR     66  59  77 CALM      30.17S
BENSON         CLEAR     63  57  82 CALM      30.18R
ORTONVILLE     CLEAR     70  57  64 E5        30.17S
MADISON        CLEAR     68  59  73 E5        30.18S
WILLMAR        FAIR      68  55  64 CALM      30.19S
$$
MNZ033>034-036-042>043-049>051-058-059-240400-
   Central Minnesota

CITY           SKY/WX    TMP DP  RH WIND       PRES   REMARKS
ST CLOUD       CLEAR     63  56  78 CALM      30.17S
SAUK CENTRE    FAIR      64  58  83 CALM      30.19S
PAYNESVILLE    CLEAR     61  57  87 CALM      30.19S
AITKIN         CLEAR     59  54  82 CALM      30.17F
PINE RIVER     CLEAR     61  57  88 CALM      30.22R
BRAINERD       CLEAR     63  57  81 CALM      30.19S
STAPLES        CLEAR     64  57  77 CALM      30.19S
LONG PRAIRIE   FAIR      64  57  77 CALM      30.20R
LITTLE FALLS   CLEAR     61  57  88 CALM      30.19R
LITCHFIELD     CLEAR     66  57  72 CALM      30.19S
BUFFALO        CLEAR     68  54  61 CALM      30.18S
MAPLE LAKE     CLEAR     64  58  81 CALM      30.18S
$$
MNZ037-044-045-052-053-240400-
   East Central Minnesota

CITY           SKY/WX    TMP DP  RH WIND       PRES   REMARKS
PRINCETON      CLEAR     63  57  82 CALM      30.18R
MORA           CLEAR     61  55  82 CALM      30.19S
CAMBRIDGE      CLEAR     66  55  68 CALM      30.16R
RUSH CITY      CLEAR     61  56  85 CALM      30.18R
MOOSE LAKE     PTCLDY    59  57  94 CALM      30.16S
HINCKLEY       MOCLDY    63  61  94 CALM      30.17S
CLOQUET        CLEAR     61  54  77 CALM      30.19S
MCGREGOR       CLEAR     63  59  88 CALM      30.19R
$$
MNZ071>073-080-081-089-090-097-098-240400-
   Southwest Minnesota

CITY           SKY/WX    TMP DP  RH WIND       PRES   REMARKS
MONTEVIDEO     CLEAR     66  55  68 CALM      30.18S
GRANITE FALLS  CLEAR     67  57  70 CALM      30.19S
CANBY          CLEAR     66  59  77 E3        30.19S
MARSHALL       CLEAR     70  55  60 E6        30.17
REDWOOD FALLS  CLEAR     70  54  56 CALM      30.17S
OLIVIA         CLEAR     70  55  60 CALM      30.17S
PIPESTONE      CLEAR     70  55  60 CALM      30.19F
WINDOM         CLEAR     64  57  77 CALM      30.19S
WORTHINGTON    CLEAR     66  55  68 NE5       30.20S
JACKSON        CLEAR     63  55  77 CALM      30.19S
TRACY          CLEAR     66  59  76 CALM      30.19R
SLAYTON        CLEAR     67  56  67 CALM      30.20S
$$
MNZ065>067-074>077-082>085-091>093-240400-
   South Central Minnesota

CITY           SKY/WX    TMP DP  RH WIND       PRES   REMARKS
MANKATO        CLEAR     70  52  52 NE8       30.17R
NEW ULM        CLEAR     70  55  60 N3        30.17R
ST JAMES       CLEAR     64  57  77 CALM      30.18S
FAIRMONT       CLEAR     66  54  63 NW3       30.18R
GLENCOE        CLEAR     65  52  62 CALM      30.17S
FARIBAULT      CLEAR     63  55  77 CALM      30.17S
OWATONNA       CLEAR     64  55  72 CALM      30.17S
WASECA         CLEAR     63  52  67 N6        30.18S
ALBERT LEA     CLEAR     66  57  72 CALM      30.17S
$$
MNZ078>079-086>088-094>096-240400-
   Southeast Minnesota

CITY           SKY/WX    TMP DP  RH WIND       PRES   REMARKS
ROCHESTER      CLEAR     67  54  63 NE3       30.18S
RED WING       CLEAR     64  57  77 CALM      30.15S
STANTON        CLEAR     67  56  68 CALM      30.15S
DODGE CENTER   CLEAR     70  57  64 CALM      30.18S
WINONA         CLEAR     70  61  73 CALM      30.15F
AUSTIN         CLEAR     66  57  72 CALM      30.17S
PRESTON        CLEAR     65  59  80 CALM      30.18S
$$
ABBREVIATIONS USED IN REMARKS
   TC - TEMPERATURES IN CELSIUS
  WCI - WIND CHILL INDEX
   HX - HEAT INDEX
  VSB - VISIBILITY
$$


USA.gov is the U.S. government's official web portal to all federal, state and local government web resources and services.